Weather History for Ortonville, MN

Change the Weather History Date:

Friday, December 28, 2012

  Actual Average (KAQP) Record (KAQP)
Temperature  
Mean Temperature 12 °F -  
Max Temperature 17 °F 20 °F 46 °F (1999)
Min Temperature 6 °F 5 °F -5 °F (2008)
Degree Days  
Heating Degree Days 52    
Moisture  
Dew Point 8 °F    
Average Humidity 86    
Maximum Humidity 92    
Minimum Humidity 73    
Precipitation  
Precipitation 0.00 in - - ()
Sea Level Pressure  
Sea Level Pressure 30.07 in    
Wind  
Wind Speed 1 mph (NNW)    
Max Wind Speed 5 mph    
Max Gust Speed -    
Visibility 5 miles    
Events Snow    
Averages and records for this station are not official NWS values.
T = Trace of Precipitation, MM = Missing Value Source: NWS Daily Summary

Daily Weather History Graph

Daily Weather History Graph

Search for Another Location

Airport:

Trip Planner

Search our weather history database for the weather conditions in past years. The results will help you decide how hot, cold, wet, or windy it might be!

Date:

Astronomy

Dec. 28, 2012 Rise Set
Actual Time 8:04 AM CST 4:50 PM CST
Civil Twilight 7:30 AM CST 5:24 PM CST
Nautical Twilight 6:53 AM CST 6:02 PM CST
Astronomical Twilight 6:17 AM CST 6:37 PM CST
Moon 5:31 PM CST (12/28) 7:57 AM CST (12/28)
Length of Visible Light 9h 53m
Length of Day
8h 45m
Full, 100% of the Moon is Illuminated
Dec 28
Full
Jan 4
Last Quarter
Jan 11
New
Jan 18
First Quarter
Jan 26
Full

Hourly Weather History & Observations

Time (CST) Temp. Windchill Dew Point Humidity Pressure Visibility Wind Dir Wind Speed Gust Speed Precip Events Conditions
12:14 AM 12.2 °F - 8.6 °F 85% 30.11 in 1.8 mi Calm Calm - N/A Snow Light Snow
12:33 AM 12.2 °F - 8.6 °F 85% 30.11 in 2.0 mi Calm Calm - N/A Snow Light Snow
12:54 AM 10.4 °F - 8.6 °F 92% 30.10 in 4.0 mi Calm Calm - N/A Snow Light Snow
1:14 AM 10.4 °F 2.2 °F 6.8 °F 85% 30.10 in 5.0 mi North 4.6 mph - N/A Snow Light Snow
1:34 AM 10.4 °F - 6.8 °F 85% 30.10 in 5.0 mi Calm Calm - N/A Snow Light Snow
1:54 AM 8.6 °F 2.0 °F 6.8 °F 92% 30.10 in 10.0 mi NNE 3.5 mph - N/A Snow Light Snow
2:13 AM 10.4 °F 2.2 °F 6.8 °F 85% 30.10 in 5.0 mi NE 4.6 mph - N/A Snow Light Snow
2:34 AM 10.4 °F - 8.6 °F 92% 30.10 in 7.0 mi Calm Calm - N/A Snow Light Snow
2:54 AM 8.6 °F - 6.8 °F 92% 30.10 in 10.0 mi Calm Calm - N/A   Overcast
3:14 AM 8.6 °F - 6.8 °F 92% 30.10 in 10.0 mi Calm Calm - N/A   Overcast
3:34 AM 10.4 °F - 6.8 °F 85% 30.09 in 10.0 mi Calm Calm - N/A   Overcast
3:54 AM 10.4 °F - 8.6 °F 92% 30.09 in 5.0 mi Calm Calm - N/A Snow Light Snow
4:14 AM 10.4 °F - 8.6 °F 92% 30.08 in 4.0 mi Calm Calm - N/A Snow Light Snow
4:34 AM 10.4 °F - 6.8 °F 85% 30.08 in 4.0 mi Calm Calm - N/A Snow Light Snow
5:14 AM 10.4 °F - 6.8 °F 85% 30.07 in 4.0 mi Calm Calm - N/A Snow Light Snow
5:34 AM 10.4 °F - 6.8 °F 85% 30.07 in 4.0 mi Calm Calm - N/A Snow Light Snow
5:54 AM 10.4 °F - 6.8 °F 85% 30.07 in 4.0 mi Calm Calm - N/A Snow Light Snow
6:34 AM 10.4 °F - 6.8 °F 85% 30.07 in 3.0 mi Calm Calm - N/A Snow Light Snow
6:54 AM 10.4 °F - 6.8 °F 85% 30.07 in 4.0 mi Calm Calm - N/A Snow Light Snow
7:14 AM 10.4 °F - 6.8 °F 85% 30.07 in 4.0 mi Calm Calm - N/A Snow Light Snow
7:33 AM 10.4 °F - 6.8 °F 85% 30.07 in 5.0 mi Calm Calm - N/A Snow Light Snow
7:54 AM 10.4 °F - 6.8 °F 85% 30.07 in 5.0 mi Calm Calm - N/A Snow Light Snow
8:14 AM 10.4 °F - 6.8 °F 85% 30.07 in 5.0 mi Calm Calm - N/A Snow Light Snow
8:33 AM 10.4 °F - 6.8 °F 85% 30.07 in 4.0 mi Calm Calm - N/A Snow Light Snow
8:54 AM 8.6 °F - 6.8 °F 92% 30.08 in 4.0 mi Calm Calm - N/A Snow Light Snow
9:13 AM 10.4 °F - 6.8 °F 85% 30.08 in 4.0 mi Calm Calm - N/A Snow Light Snow
9:34 AM 8.6 °F - 5.0 °F 85% 30.09 in 4.0 mi Calm Calm - N/A Snow Light Snow
9:54 AM 8.6 °F - 5.0 °F 85% 30.09 in 5.0 mi Calm Calm - N/A   Overcast
10:14 AM 10.4 °F - 6.8 °F 85% 30.09 in 1.8 mi Calm Calm - N/A   Overcast
10:34 AM 12.2 °F - 8.6 °F 85% 30.09 in 5.0 mi Calm Calm - N/A Snow Light Snow
10:54 AM 12.2 °F - 8.6 °F 85% 30.09 in 1.2 mi Calm Calm - N/A Snow Light Snow
11:14 AM 12.2 °F - 8.6 °F 85% 30.09 in 1.2 mi Calm Calm - N/A Snow Light Snow
11:34 AM 14.0 °F 8.2 °F 8.6 °F 79% 30.08 in 2.5 mi NNW 3.5 mph - N/A Snow Light Snow
12:14 PM 15.8 °F - 8.6 °F 73% 30.08 in 5.0 mi Calm Calm - N/A Snow Light Snow
12:34 PM 15.8 °F - 10.4 °F 79% 30.07 in 5.0 mi Calm Calm - N/A Snow Light Snow
12:54 PM 15.8 °F - 10.4 °F 79% 30.06 in 4.0 mi Calm Calm - N/A Snow Light Snow
1:14 PM 15.8 °F 10.2 °F 10.4 °F 79% 30.05 in 5.0 mi North 3.5 mph - N/A Snow Light Snow
1:33 PM 15.8 °F - 10.4 °F 79% 30.05 in 5.0 mi Calm Calm - N/A Snow Light Snow
1:54 PM 17.6 °F 10.7 °F 12.2 °F 79% 30.04 in 7.0 mi NNW 4.6 mph - N/A Snow Light Snow
2:14 PM 17.6 °F 10.7 °F 12.2 °F 79% 30.04 in 7.0 mi NW 4.6 mph - N/A   Overcast
2:34 PM 15.8 °F - 12.2 °F 86% 30.04 in 7.0 mi Calm Calm - N/A   Overcast
2:54 PM 15.8 °F - 12.2 °F 86% 30.05 in 7.0 mi Calm Calm - N/A Snow Light Snow
3:14 PM 15.8 °F - 12.2 °F 86% 30.05 in 7.0 mi Calm Calm - N/A Snow Light Snow
3:34 PM 15.8 °F 8.6 °F 10.4 °F 79% 30.04 in 3.0 mi NNW 4.6 mph - N/A Snow Light Snow
3:54 PM 15.8 °F - 10.4 °F 79% 30.05 in 4.0 mi Calm Calm - N/A Snow Light Snow
4:34 PM 14.0 °F - 10.4 °F 86% 30.04 in 4.0 mi Calm Calm - N/A Snow Light Snow
4:54 PM 14.0 °F - 10.4 °F 86% 30.04 in 7.0 mi Calm Calm - N/A   Overcast
5:14 PM 14.0 °F - 10.4 °F 86% 30.05 in 7.0 mi Calm Calm - N/A Snow Light Snow
5:54 PM 12.2 °F - 10.4 °F 92% 30.06 in 7.0 mi Calm Calm - N/A   Overcast
6:14 PM 12.2 °F - 10.4 °F 92% 30.06 in 7.0 mi Calm Calm - N/A   Overcast
6:34 PM 10.4 °F - 8.6 °F 92% 30.06 in 7.0 mi Calm Calm - N/A   Mostly Cloudy
6:54 PM 10.4 °F - 8.6 °F 92% 30.06 in 7.0 mi Calm Calm - N/A Snow Light Snow
7:13 PM 10.4 °F - 8.6 °F 92% 30.06 in 7.0 mi Calm Calm - N/A Snow Light Snow
7:34 PM 10.4 °F - 8.6 °F 92% 30.06 in 7.0 mi Calm Calm - N/A Snow Light Snow
7:54 PM 10.4 °F - 8.6 °F 92% 30.06 in 5.0 mi Calm Calm - N/A Snow Light Snow
8:14 PM 10.4 °F - 8.6 °F 92% 30.06 in 5.0 mi Calm Calm - N/A Snow Light Snow
8:34 PM 12.2 °F - 8.6 °F 85% 30.06 in 5.0 mi Calm Calm - N/A Snow Light Snow
8:54 PM 10.4 °F - 8.6 °F 92% 30.06 in 5.0 mi Calm Calm - N/A Snow Light Snow
9:13 PM 10.4 °F - 6.8 °F 85% 30.06 in 7.0 mi Calm Calm - N/A   Overcast
9:34 PM 10.4 °F - 6.8 °F 85% 30.06 in 5.0 mi Calm Calm - N/A Snow Light Snow
9:54 PM 10.4 °F - 6.8 °F 85% 30.06 in 10.0 mi Calm Calm - N/A   Overcast
10:14 PM 10.4 °F - 6.8 °F 85% 30.06 in 7.0 mi Calm Calm - N/A Snow Light Snow
10:34 PM 8.6 °F - 5.0 °F 85% 30.06 in 7.0 mi Calm Calm - N/A   Scattered Clouds
10:54 PM 8.6 °F - 5.0 °F 85% 30.06 in 7.0 mi Calm Calm - N/A   Clear
11:14 PM 8.6 °F - 3.2 °F 79% 30.06 in 7.0 mi Calm Calm - N/A   Clear
11:33 PM 8.6 °F - 5.0 °F 85% 30.06 in 7.0 mi Calm Calm - N/A   Clear
11:54 PM 6.8 °F -2.0 °F 3.2 °F 85% 30.06 in 5.0 mi West 4.6 mph - N/A   Clear